Regional Weather Roundup
Issued by NWS Cleveland, OH

Home | Current Version | Previous Version | Text Only | Print | Product List | Glossary On
Versions: 1 2 3 4 5 6 7 8 9 10 11 12 13 14 15 16 17 18 19 20 21 22 23 24 25 26 27 28 29 30 31 32 33 34 35 36 37 38 39 40 41 42 43 44 45 46 47 48 49 50
000
ASUS41 KCLE 262000
RWRCLE
OHIO REGIONAL WEATHER ROUNDUP
NATIONAL WEATHER SERVICE WILMINGTON, OH
400 PM EDT SAT JUL 26 2014

NOTE: "FAIR" INDICATES FEW OR NO CLOUDS BELOW 12,000 FEET WITH NO
SIGNIFICANT WEATHER AND/OR OBSTRUCTIONS TO VISIBILITY.

OHZ001>008-015>018-024>027-034-035-043-044-262100-
   NORTHWEST OHIO

CITY           SKY/WX    TMP DP  RH WIND       PRES   REMARKS
DEFIANCE       CLOUDY    74  69  85 S5        29.85R HAZE
FINDLAY        RAIN      75  68  78 S8        29.83F
TOLEDO EXPRESS CLOUDY    77  66  68 S9        29.84S
TOLEDO METCALF CLOUDY    78  64  61 S10       29.85F
LIMA           CLOUDY    77  67  71 S18       29.81F THUNDER
$$

OHZ009>014-019>023-028>033-038-089-262100-
   NORTHEAST OHIO

CITY           SKY/WX    TMP DP  RH WIND       PRES   REMARKS
CLE-HOPKINS    CLOUDY    80  61  52 SW13      29.87F
CLE-LAKEFRONT  PTSUNNY   79  66  64 N8        29.83F
CUY CO. ARPT   PTSUNNY   79  64  61 S9        29.86F
LORAIN-ELYRIA  CLOUDY    83  60  45 SW12      29.86F
ASHTABULA      MOSUNNY   81  61  50 S10       29.88F
AKRON-CANTON   PTSUNNY   82  62  50 SW14      29.89F
WOOSTER        NOT AVBL
MANSFIELD      CLOUDY    79  61  53 S12       29.89F
YOUNGSTOWN     PTSUNNY   80  62  54 S5        29.89F
$$

OHZ042-051>053-060>062-070>072-077>081-262100-
  SOUTHWEST OHIO

CITY           SKY/WX    TMP DP  RH WIND       PRES   REMARKS
CINC-COVINGTON MOSUNNY   84  69  60 S9G18     29.90F
CINC-LUNKEN    MOSUNNY   83  70  64 S10       29.88F
HAMILTON       PTSUNNY   85  72  65 SW8       29.88F HX  91
DAYTON         NOT AVBL
WRIGHT-PAT AFB NOT AVBL
DAYTON GENERAL CLOUDY    81  69  67 S14       29.88F
WILMINGTON     MOSUNNY   80  66  62 S13       29.89F
$$

OHZ036-037-039>041-045>050-054>059-063>069-073>076-082>088-262100-
  CENTRAL AND SOUTHEAST OHIO

CITY           SKY/WX    TMP DP  RH WIND       PRES   REMARKS
COLUMBUS       CLOUDY    83  63  50 SW15      29.89F
OSU AIRPORT    CLOUDY    79  64  60 S16       29.88F
BOLTON FIELD   CLOUDY    77  66  69 S14       29.90F
RICKENBACK AFB NOT AVBL
NEWARK         PTSUNNY   81  60  48 SW13G22   29.89F
MARION         CLOUDY    78  65  63 SW13      29.87F
LANCASTER      CLOUDY    81  63  54 S8        29.90F
ZANESVILLE     MOSUNNY   83  62  49 S12G21    29.90F
NEW PHILLY     MOSUNNY   80  64  58 S10G17    29.90F
$$


USA.gov is the U.S. government's official web portal to all federal, state and local government web resources and services.